Wind_Speed
112 113 113 113 113 114 114 114 114 114 114 114 114 114 114 114 114 114 113 113 113 113 112 112 111 111 111 110 110 109 109 107 106 105 104 102 101 100 99 99 98 97 97 96 95 94 93 93 92 92 92 92 92 91 90 90 89 88 88 87 86 85 85 84 82 81 80 78 77 76 76 75 75 75 75 74 74 74 74 75 76 76 76 75 75 74
112 112 112 112 112 113 113 113 113 113 113 113 113 113 113 113 113 113 113 113 113 113 113 112 112 112 112 111 111 111 110 109 108 107 106 105 103 102 101 100 99 99 98 98 97 96 95 94 93 93 93 93 93 93 92 91 90 90 89 88 87 87 86 85 84 82 81 80 79 78 78 77 77 77 78 78 77 77 78 78 78 78 78 78 76 75
112 112 112 112 112 112 112 112 112 112 112 112 112 112 112 112 112 112 113 113 113 113 113 113 113 112 112 112 112 112 111 111 110 109 108 107 106 105 103 102 101 101 100 99 99 98 97 96 95 95 94 94 94 94 93 92 92 91 90 90 89 88 87 86 85 84 83 81 80 79 79 79 79 79 80 80 80 80 81 81 81 80 80 79 77 75
111 111 111 111 111 111 111 111 111 111 111 111 111 111 111 111 112 112 112 112 113 113 113 113 113 113 113 113 113 113 112 112 112 111 110 109 108 107 106 105 104 103 102 101 101 100 100 99 98 97 97 96 96 95 94 94 93 92 92 91 91 90 89 88 87 86 85 83 82 81 80 79 79 80 80 81 81 82 82 82 82 82 81 80 77 75
110 110 110 110 110 110 110 111 111 111 111 111 111 111 112 112 112 112 112 112 113 113 113 114 114 114 114 114 114 114 114 114 114 113 113 112 111 110 109 107 106 105 104 103 102 102 102 101 101 100 100 99 98 97 96 95 95 94 93 93 92 92 91 90 89 88 87 86 84 83 82 81 80 80 80 80 81 81 82 82 82 81 81 79 77 74
109 109 109 109 109 110 110 110 111 111 111 112 112 112 112 113 113 113 113 114 114 114 114 115 115 115 115 115 116 116 116 116 116 115 115 114 114 113 112 110 109 108 106 105 104 104 103 103 103 103 102 102 101 100 99 98 97 96 95 95 94 93 93 92 91 90 89 88 87 85 84 83 82 81 80 80 80 80 80 80 80 80 79 78 76 74
108 108 108 109 109 110 110 111 111 111 112 112 113 113 114 114 114 114 115 115 115 115 116 116 116 116 117 117 117 117 117 117 118 117 117 117 116 116 115 114 112 111 109 108 107 106 105 104 104 104 104 104 104 103 101 100 99 98 98 97 96 96 95 94 93 92 91 90 89 88 87 85 84 83 82 81 80 80 79 79 78 78 77 77 75 73
108 109 109 109 109 110 111 111 112 112 113 113 114 114 115 115 115 115 116 116 116 117 117 117 117 117 118 118 118 118 119 119 119 119 119 119 118 118 117 116 115 114 113 111 110 109 107 106 106 106 106 106 106 105 104 103 102 101 100 99 99 98 97 97 95 94 93 92 91 90 89 88 87 86 85 83 82 81 80 79 79 78 77 76 75 74
108 109 110 110 110 111 112 113 113 113 114 114 115 115 116 116 116 116 116 117 117 117 117 117 118 118 119 119 119 119 120 120 120 120 120 120 120 120 119 118 118 117 116 115 113 112 111 109 108 108 108 107 107 107 106 105 104 103 102 101 101 100 99 99 98 97 95 94 93 92 91 90 89 88 87 86 85 84 83 81 80 79 79 78 76 75
109 110 111 111 112 112 113 114 115 116 116 116 116 117 117 117 117 117 117 117 117 117 117 118 118 119 119 119 119 120 120 121 121 121 121 121 121 121 120 120 119 118 118 117 116 115 114 113 112 111 110 109 109 109 108 107 106 105 104 103 102 102 101 101 100 99 98 97 95 94 93 92 92 91 90 89 88 87 85 84 83 82 81 80 78 77
110 111 112 113 114 114 115 116 117 118 118 118 118 119 119 118 118 118 118 118 118 118 118 118 119 119 120 120 120 120 120 121 122 122 122 122 122 121 121 121 120 119 119 118 118 117 117 116 115 114 113 112 111 111 110 109 108 107 106 105 104 103 102 102 101 100 100 99 97 96 95 95 94 93 92 92 90 89 88 87 85 84 83 82 81 80
112 113 114 115 116 116 117 118 119 119 120 120 121 121 121 120 119 119 119 120 120 119 119 119 119 119 120 120 120 120 120 121 122 122 122 122 122 122 121 121 121 120 119 119 119 118 118 118 117 117 116 115 114 113 112 111 110 109 108 107 106 105 104 103 102 101 101 100 99 98 97 96 96 95 95 94 93 92 91 90 88 87 86 85 84 83
114 115 116 117 118 118 119 120 121 121 122 122 122 123 123 122 122 121 121 121 121 120 119 119 119 119 119 119 120 120 120 120 121 121 121 121 121 121 121 121 121 120 119 119 119 119 119 119 119 119 118 118 117 116 115 114 113 112 111 110 109 107 106 104 103 102 102 101 100 99 98 98 97 97 96 96 95 94 93 92 91 90 89 88 87 86
116 117 118 119 120 121 121 122 123 124 124 124 124 124 124 124 123 122 122 121 121 120 119 119 119 119 118 118 118 118 119 119 119 119 119 119 119 119 119 119 119 119 119 119 119 119 118 119 119 119 119 119 119 119 118 117 116 114 113 112 111 110 108 106 105 104 103 102 102 101 100 99 98 97 97 97 96 96 95 94 93 93 92 91 90 89
118 119 120 121 122 123 123 124 125 125 125 125 125 124 124 124 123 122 121 121 120 119 117 117 117 116 116 115 115 115 116 116 116 116 116 116 115 116 116 117 117 117 117 117 118 118 117 118 118 119 119 120 120 120 120 119 118 117 116 115 114 112 111 109 107 105 104 104 103 103 102 101 100 99 98 97 97 96 95 95 94 94 93 93 92 91
120 121 122 123 124 124 124 125 125 126 125 125 124 124 123 123 122 120 120 119 118 116 115 114 113 113 112 112 111 112 112 113 113 112 112 111 111 111 112 113 114 114 114 115 115 115 116 116 117 117 118 119 120 121 121 121 120 119 118 117 116 115 113 111 109 108 106 106 105 104 103 102 101 100 99 98 97 96 95 95 94 94 93 93 93 92
121 122 123 124 124 125 125 124 125 125 124 124 123 122 121 120 119 118 117 116 115 113 112 111 110 110 109 108 108 108 108 109 109 108 107 107 107 107 108 109 110 111 111 111 111 112 113 114 114 115 116 117 118 119 121 121 121 121 120 119 118 117 116 114 112 110 108 107 107 106 105 104 103 102 100 99 98 97 96 95 94 93 93 92 92 92
122 123 123 124 124 124 123 123 123 122 122 121 120 119 118 117 116 115 114 113 112 111 109 108 107 106 106 105 105 104 105 105 105 104 103 103 102 103 103 105 106 106 107 107 107 108 109 111 112 112 113 114 116 117 119 120 121 121 121 120 119 119 118 116 115 113 111 109 109 108 107 106 105 103 102 101 99 98 96 95 94 93 92 92 92 91
122 122 122 122 122 121 121 120 120 119 119 118 117 116 115 114 113 112 111 110 109 107 106 105 104 103 102 102 101 101 101 101 102 101 100 99 98 99 99 101 102 103 103 103 104 104 105 107 108 109 110 111 112 114 115 117 119 120 120 120 120 120 119 118 117 115 113 112 111 110 109 108 107 105 104 102 100 99 97 96 95 94 93 92 92 91
121 121 121 120 119 119 118 117 116 115 115 114 113 112 111 110 109 108 107 106 105 104 103 102 101 99 98 98 97 97 97 97 98 97 96 96 95 95 96 97 98 99 99 100 100 101 102 103 104 105 106 108 109 110 111 113 115 117 118 119 120 120 120 119 118 117 115 114 113 112 111 110 109 107 105 103 102 100 99 97 96 95 94 93 92 92
120 119 118 117 116 116 115 114 113 112 112 111 110 109 108 107 105 104 103 102 101 100 99 98 97 96 95 94 94 93 93 93 93 93 92 91 91 91 92 94 95 95 96 96 97 97 99 100 101 102 103 104 105 107 108 109 111 113 115 117 118 119 120 120 119 118 117 115 114 114 113 112 110 108 107 105 103 102 100 99 98 97 95 94 93 92
117 117 116 115 114 113 112 111 110 110 109 108 108 107 105 104 102 101 99 98 97 96 95 94 93 92 91 90 90 89 89 89 89 88 87 87 87 87 88 90 91 92 92 93 94 95 96 97 98 99 100 101 102 103 105 106 107 109 111 113 115 117 119 120 120 119 118 116 116 115 114 113 112 110 108 107 105 104 102 101 100 98 97 96 94 93
115 114 113 112 111 110 109 109 108 108 107 106 106 104 103 101 100 98 97 95 94 93 92 90 89 88 87 87 86 86 85 85 84 83 83 82 82 83 84 85 87 88 88 89 90 91 93 94 95 96 97 98 99 101 102 103 104 105 107 109 111 114 116 118 119 119 118 117 116 115 115 114 113 112 110 108 107 106 104 103 102 100 99 97 96 94
112 111 111 110 109 108 107 107 106 105 105 104 103 102 101 99 98 96 94 93 91 90 88 87 86 85 84 83 83 82 82 81 80 79 78 78 78 79 80 81 83 84 85 86 87 88 90 91 92 93 95 96 97 98 99 100 101 102 103 105 107 110 113 116 118 118 118 117 116 115 115 115 114 113 112 111 109 108 107 105 104 102 101 99 97 96
109 109 108 108 107 106 105 105 104 104 103 102 101 100 98 97 95 94 92 91 89 87 86 84 83 82 81 80 80 79 78 78 77 75 74 74 74 74 75 77 78 80 81 82 83 85 86 88 89 91 92 93 94 95 97 98 99 100 101 102 104 106 109 112 115 117 117 116 115 114 114 114 115 114 114 113 112 110 109 107 106 104 102 101 99 97
107 107 106 106 105 105 104 103 103 102 101 100 99 98 96 94 93 91 89 88 86 85 83 82 80 79 78 77 77 76 75 74 73 72 71 70 69 70 72 73 75 76 77 78 80 81 83 85 86 88 89 91 92 93 94 95 96 97 98 100 101 103 105 108 112 114 116 115 114 113 113 113 114 115 115 115 114 112 111 109 108 106 104 102 101 99
106 105 105 105 104 103 103 102 101 100 99 98 97 95 94 92 90 88 87 85 84 82 81 79 78 77 76 75 74 74 73 72 70 68 67 66 66 67 68 69 71 72 73 75 76 78 80 81 83 85 86 88 89 90 91 93 94 95 96 97 98 100 102 104 108 111 113 114 113 112 111 112 113 115 116 116 115 114 112 111 109 107 106 104 102 101
104 104 104 103 103 102 101 100 100 99 98 97 95 93 91 90 88 86 84 82 81 79 78 77 75 74 73 72 72 71 70 69 67 65 64 63 63 64 65 66 67 69 70 71 73 74 76 78 80 82 83 85 86 87 89 90 91 93 94 95 96 97 99 101 104 108 111 112 112 110 109 110 112 114 115 116 116 115 113 112 111 109 107 106 104 102
102 102 102 101 101 100 100 99 98 97 96 95 94 92 89 87 86 84 82 80 78 77 75 74 73 71 70 69 69 68 68 66 65 63 61 61 61 61 62 63 64 65 66 68 69 71 73 75 77 79 80 82 83 84 86 87 89 90 92 93 94 95 97 99 102 105 108 110 110 109 108 108 110 112 114 115 116 115 114 113 112 111 109 107 106 104
99 99 99 99 98 98 97 96 96 95 94 93 91 89 87 85 83 81 79 77 76 74 73 71 70 69 68 67 66 66 65 64 62 60 59 58 58 59 60 60 61 62 63 64 66 68 70 72 74 75 77 78 80 81 83 84 86 88 89 91 92 93 95 97 100 102 105 107 108 107 107 106 108 110 112 114 116 116 115 115 114 112 111 109 108 106
97 96 96 96 96 95 95 94 93 92 91 90 89 87 85 83 81 79 77 75 73 72 70 69 68 66 65 64 64 63 62 61 60 58 57 56 56 57 57 58 59 60 60 61 62 64 66 68 70 72 73 74 76 78 79 81 83 85 87 88 90 92 93 96 98 100 102 104 105 105 105 105 106 107 110 113 115 116 116 116 115 114 112 111 110 108
94 93 93 93 92 92 92 91 90 89 88 87 86 84 82 80 78 76 75 73 71 69 68 67 65 64 63 62 61 61 60 59 57 56 55 54 54 55 55 56 57 57 58 59 60 61 63 65 67 68 70 71 73 75 76 78 80 82 84 86 88 90 92 94 96 98 99 100 102 103 103 103 103 105 107 110 113 115 116 116 115 114 113 112 111 110
91 90 90 90 89 89 88 88 87 86 85 84 82 81 79 78 76 74 72 70 68 67 66 64 63 62 61 60 59 58 57 56 55 54 53 53 53 53 53 54 55 55 56 56 57 59 60 62 64 65 67 68 70 72 74 76 77 79 81 83 85 88 90 92 94 95 96 97 98 100 101 101 101 102 104 107 110 113 114 115 115 115 114 113 112 111
88 88 87 87 86 86 85 84 84 83 81 80 79 78 76 75 73 71 69 68 66 65 63 62 61 60 59 58 57 56 55 54 53 52 52 51 51 51 52 52 52 53 53 54 55 56 58 59 61 63 64 66 67 69 71 73 75 77 79 81 83 85 87 89 91 92 92 93 94 96 98 99 99 100 101 104 107 110 113 114 114 114 114 114 113 112
86 85 85 84 83 83 82 82 81 80 78 77 76 74 73 71 70 68 67 65 64 62 61 60 59 58 57 56 56 55 54 53 52 51 50 50 50 50 50 50 50 51 51 52 53 54 55 57 59 60 62 63 65 67 69 70 72 74 76 78 80 82 84 86 87 88 88 89 91 93 95 97 97 98 99 101 105 108 110 112 113 114 114 114 114 113
84 83 82 82 81 80 79 79 78 77 75 74 73 71 70 68 67 66 64 63 62 60 59 58 57 56 55 54 54 53 53 52 50 49 49 48 48 48 48 48 48 49 49 50 51 52 53 55 57 58 60 61 63 64 66 67 69 71 73 75 77 79 81 82 83 84 85 86 88 90 93 95 96 96 97 99 102 105 108 110 112 113 114 114 114 114
82 81 80 79 78 78 77 76 75 74 72 71 70 68 67 66 64 63 62 60 59 58 57 56 55 54 53 52 52 52 52 51 49 48 47 47 47 47 47 47 47 47 47 48 49 50 51 53 55 56 58 59 60 62 63 65 66 68 70 72 74 76 77 79 80 81 82 83 85 88 90 93 94 95 95 97 100 103 106 109 111 113 114 114 114 114
80 79 78 77 76 75 74 73 72 71 70 69 67 66 65 64 62 61 59 58 57 57 56 55 54 52 51 51 50 50 50 49 49 47 46 46 45 45 45 45 45 45 45 46 47 48 49 51 53 54 56 57 58 59 61 62 63 65 67 68 70 72 74 76 77 77 78 79 82 85 88 90 92 93 94 95 98 101 105 108 110 112 113 114 115 115
79 78 77 76 75 73 72 71 70 69 67 66 65 64 63 62 60 59 58 57 56 55 54 53 52 51 50 49 49 48 48 48 47 46 46 45 44 44 44 44 43 43 44 44 45 46 47 49 51 52 53 55 56 57 58 59 61 62 64 65 67 69 71 72 73 74 75 76 79 82 86 88 90 92 93 94 96 99 103 106 109 111 112 114 115 115
77 76 75 74 73 72 70 69 68 67 65 64 63 62 61 60 59 57 56 55 54 53 53 52 51 50 49 48 47 47 47 46 46 45 45 44 43 43 42 42 42 42 42 43 43 44 46 47 48 50 51 52 53 54 56 57 58 60 61 63 65 66 68 69 70 70 71 73 76 79 83 86 88 90 91 93 95 97 100 103 106 108 110 112 114 116
76 75 74 73 71 70 69 67 66 65 63 62 61 60 59 58 57 56 55 53 52 52 51 50 50 49 48 47 46 46 45 45 45 44 43 43 42 41 41 41 40 40 41 41 42 43 44 45 46 47 49 50 51 52 53 55 56 57 59 60 62 63 64 65 66 67 68 70 73 77 81 84 86 88 89 91 93 95 98 100 103 106 108 110 113 115
74 73 72 71 70 68 67 66 64 63 61 60 59 58 57 56 55 54 53 52 51 50 49 49 48 47 47 46 45 44 44 44 43 43 42 41 41 40 40 39 39 39 39 39 40 41 42 43 44 45 46 47 49 50 51 52 54 55 57 58 59 60 61 63 63 65 66 68 71 74 78 82 84 86 87 89 91 93 95 98 101 103 106 109 111 113
73 72 70 69 68 66 65 64 62 61 60 59 57 56 55 55 54 53 52 51 50 49 48 47 47 46 45 45 44 43 43 42 42 42 41 40 39 39 38 38 38 38 38 38 38 39 40 41 42 43 44 45 46 48 49 51 52 53 54 55 57 58 59 60 61 62 64 66 69 72 76 79 82 84 85 87 89 91 93 96 99 101 104 107 109 112
71 70 69 67 66 64 63 62 61 59 58 57 56 55 54 53 52 51 50 49 48 48 47 46 45 45 44 43 43 42 41 41 41 40 40 39 38 37 37 36 36 36 36 36 37 37 38 39 40 41 42 43 45 46 47 49 50 51 52 53 54 55 56 57 58 60 61 64 67 70 74 77 79 81 83 85 87 89 91 94 97 99 102 105 107 110
70 69 68 66 65 63 62 61 59 58 57 56 55 54 53 52 51 50 49 48 47 46 46 45 44 44 43 42 41 41 40 40 39 39 39 38 37 36 35 35 35 35 35 35 35 36 36 37 38 39 40 41 43 44 45 47 48 49 50 51 52 53 54 55 56 58 60 62 64 68 71 74 77 79 82 84 85 87 89 91 94 97 100 102 105 108
70 69 67 66 64 63 61 60 58 57 55 54 53 52 51 51 50 49 48 47 46 45 45 44 43 42 42 41 40 39 39 38 38 38 37 37 35 35 34 34 33 33 33 34 34 34 35 36 36 37 38 40 41 42 43 45 46 47 48 50 50 51 52 53 54 56 58 60 62 65 68 71 74 77 80 81 83 84 86 89 91 94 97 100 103 106
70 69 67 65 64 62 60 59 57 56 54 53 52 51 50 50 49 48 47 46 45 44 44 43 42 41 41 40 39 38 38 37 37 36 36 35 34 33 33 32 32 32 32 32 32 33 33 34 35 36 37 38 39 40 42 43 44 45 47 48 49 50 51 52 53 54 56 58 60 63 66 69 72 75 77 78 79 81 83 86 89 92 94 97 100 104
70 68 67 65 63 61 59 58 56 55 53 52 51 50 49 49 48 47 46 46 45 44 43 42 41 40 39 39 38 37 36 36 35 35 34 34 33 32 31 31 31 30 30 31 31 31 32 32 33 34 35 36 37 38 40 41 42 44 45 46 47 48 49 50 51 53 54 56 59 61 64 67 70 72 74 76 77 79 81 84 87 90 92 95 98 101
69 68 66 64 62 60 59 57 55 54 52 51 50 49 48 48 47 46 45 45 44 43 42 41 40 39 38 38 37 36 35 34 34 33 33 32 32 31 30 30 29 29 29 29 29 30 30 31 31 32 33 34 35 36 38 39 41 42 44 45 46 47 48 49 50 51 53 55 57 59 62 65 67 69 71 74 76 77 80 82 85 88 91 93 96 99
69 68 66 64 62 60 58 56 54 53 52 50 49 48 47 47 46 45 44 44 43 42 41 40 39 39 38 37 36 35 34 33 32 32 31 31 30 30 29 29 28 28 28 28 28 28 29 29 30 31 32 32 34 35 36 37 39 41 42 43 45 46 46 47 48 50 51 53 55 57 59 62 65 67 70 72 74 76 78 80 83 86 89 91 94 97
69 67 65 63 61 59 57 55 54 52 51 49 48 47 46 46 45 44 43 43 42 41 40 39 38 38 37 36 34 33 33 32 31 30 30 29 29 28 28 27 27 27 26 27 27 27 27 28 28 29 30 31 32 33 34 36 37 39 41 42 43 44 45 45 46 48 49 51 52 55 57 60 63 66 68 70 72 73 75 78 81 84 87 89 92 95
Wind_Direction
288 288 288 288 288 288 288 288 289 289 289 289 289 289 289 289 289 289 289 289 288 288 288 288 288 288 287 287 287 287 286 286 285 285 284 284 283 283 282 281 281 280 280 279 279 278 277 276 276 275 275 275 275 274 274 273 273 272 272 271 271 271 271 271 271 271 270 270 269 268 267 266 265 264 264 264 264 263 263 263 264 264 265 266 267 268
288 288 288 289 289 289 289 289 289 289 289 289 289 289 289 289 289 289 288 288 288 288 288 287 287 287 287 287 286 286 286 286 285 285 284 284 283 283 282 281 281 280 280 279 279 278 277 276 275 274 274 273 273 273 273 273 272 272 271 271 271 270 270 269 269 269 268 268 267 266 265 265 264 263 263 263 263 262 263 263 263 264 265 266 267 267
289 289 289 289 289 289 289 289 289 289 289 289 289 289 289 288 288 288 288 287 287 287 287 287 286 286 286 286 285 285 285 285 284 284 284 283 282 282 281 281 280 280 279 279 278 278 277 276 275 274 273 273 272 272 272 272 271 271 271 271 270 270 269 269 268 268 267 267 266 265 264 263 262 262 261 261 261 261 262 262 263 264 264 265 266 267
290 290 290 290 290 290 290 290 290 289 289 289 289 288 288 288 287 287 287 287 286 286 286 286 285 285 285 285 284 284 284 283 283 283 282 282 281 281 280 280 279 279 278 278 277 277 277 276 275 274 274 273 272 271 271 271 270 270 270 270 270 269 269 268 268 268 267 267 266 265 264 263 262 261 261 260 260 260 261 261 262 263 264 264 265 265
291 291 291 291 291 291 290 290 290 289 289 289 288 288 288 287 287 286 286 286 285 285 285 285 284 284 284 284 283 283 283 282 282 282 281 281 280 280 279 278 278 277 277 276 276 276 275 275 275 274 273 273 272 271 271 270 270 269 269 269 268 268 268 268 267 267 267 266 266 265 265 264 263 262 261 260 260 260 260 260 261 262 263 263 264 264
292 292 291 291 291 291 290 290 290 289 289 288 288 287 287 286 286 286 285 285 284 284 284 283 283 283 283 282 282 282 281 281 281 280 280 280 279 279 278 277 277 276 275 275 274 274 274 273 273 273 272 272 271 271 270 270 269 269 268 268 268 267 267 267 266 266 266 266 265 265 265 264 263 263 262 261 260 260 260 260 260 261 262 262 263 264
292 292 292 291 291 290 290 289 289 288 288 287 287 286 286 285 285 285 284 284 283 283 282 282 282 281 281 281 280 280 280 280 279 279 279 278 278 277 277 277 276 275 275 274 273 272 272 272 271 271 271 271 270 270 269 269 268 268 268 267 267 266 266 266 266 265 265 265 265 265 264 264 264 263 263 262 261 261 261 260 260 261 261 262 263 263
292 292 291 291 290 290 289 288 288 287 287 286 286 285 285 284 284 283 283 282 282 282 281 281 280 280 280 279 279 279 278 278 278 277 277 277 276 276 276 275 275 274 274 273 272 272 271 270 270 269 269 269 269 268 268 268 267 267 266 266 266 265 265 265 265 265 265 264 264 264 264 264 264 263 263 263 262 262 261 261 261 261 261 262 262 263
292 291 291 290 289 289 288 288 287 286 286 285 285 284 284 283 283 282 282 282 281 281 280 280 280 279 279 278 278 278 277 277 276 276 276 275 275 275 274 274 274 273 273 272 272 271 270 269 269 268 268 267 267 267 267 266 266 265 265 265 264 264 264 264 264 264 264 264 264 263 263 263 263 263 263 263 263 262 262 262 262 262 262 262 262 263
291 291 290 290 289 289 289 288 288 287 287 286 286 285 284 284 283 283 282 282 281 281 280 280 279 279 278 278 277 277 277 276 276 275 275 274 274 273 273 272 272 272 271 271 271 270 270 269 268 267 267 266 266 265 265 265 265 264 264 263 263 263 262 262 262 263 263 263 263 262 262 262 262 262 262 262 262 262 262 262 262 262 262 262 262 262
292 291 291 291 290 290 290 289 289 288 288 287 287 286 286 285 284 284 284 283 282 282 281 281 280 280 279 278 278 277 276 276 275 275 274 274 273 272 272 271 271 270 270 270 269 269 269 268 268 267 266 266 265 264 264 264 263 263 262 262 262 261 261 261 261 261 261 261 261 261 261 261 261 261 261 261 261 261 261 261 261 261 261 262 262 262
293 293 292 292 292 292 291 291 290 290 289 289 289 288 287 287 286 286 285 285 284 283 283 282 281 281 280 279 278 278 277 276 275 275 274 273 273 272 271 271 270 270 269 268 268 267 267 267 266 266 266 265 264 264 263 263 262 262 261 261 260 260 260 259 259 259 260 260 260 259 259 259 259 259 259 259 260 260 260 260 260 260 260 261 261 261
294 294 294 294 293 293 293 292 292 291 291 290 290 290 289 288 288 287 287 286 285 285 284 283 282 281 281 280 279 278 277 277 276 275 274 274 273 272 271 271 270 269 268 268 267 266 266 265 265 265 264 264 264 263 263 262 261 261 260 260 260 259 259 258 258 258 258 258 258 258 258 258 258 257 257 258 258 258 258 258 259 259 259 259 260 260
296 296 295 295 294 294 294 293 293 292 292 291 291 290 290 289 289 288 287 287 286 285 285 284 283 282 281 280 280 279 278 277 276 275 274 274 273 272 271 271 270 269 268 267 266 265 265 264 263 263 263 263 262 262 262 261 261 260 260 259 259 258 258 257 257 257 257 257 257 257 257 257 257 256 256 256 256 256 256 257 257 257 257 258 258 259
297 297 296 296 295 295 294 294 293 293 292 292 291 291 290 290 289 289 288 287 287 286 285 284 283 283 282 281 280 279 278 277 276 275 274 273 273 272 271 270 269 269 268 267 266 265 264 263 262 262 261 261 261 261 260 260 260 259 259 258 258 257 257 256 256 255 255 255 256 256 256 256 256 255 255 255 255 255 255 255 255 256 256 256 257 258
297 297 296 296 295 295 294 294 293 293 292 292 291 291 290 290 289 289 288 288 287 286 286 285 284 283 282 281 280 279 278 277 276 275 274 273 273 272 271 270 269 268 267 266 266 265 264 263 262 261 260 260 259 259 259 259 258 258 258 257 257 257 256 256 255 254 254 254 254 254 254 254 254 254 254 254 254 254 254 254 255 255 255 255 256 256
297 297 296 296 295 295 294 294 293 293 292 292 292 291 291 290 290 289 289 288 288 287 286 285 285 284 283 282 281 280 279 278 276 275 274 273 272 272 271 270 269 268 267 266 265 264 263 262 261 260 259 258 258 257 257 257 257 257 256 256 256 256 255 255 254 254 253 253 253 253 253 253 253 253 253 253 253 253 254 254 254 254 254 254 255 255
297 297 296 296 295 295 294 294 293 293 293 292 292 291 291 291 290 290 289 289 288 288 287 286 285 284 283 282 281 280 279 278 277 276 275 273 272 271 270 269 268 267 266 265 264 263 262 261 260 259 258 257 257 256 256 255 255 255 255 255 255 254 254 254 254 253 253 252 252 252 252 252 252 252 252 252 252 252 253 253 253 253 254 254 254 254
297 297 296 296 295 295 295 294 294 293 293 292 292 292 291 291 290 290 290 289 289 288 287 287 286 285 284 282 281 280 279 278 277 276 274 273 272 271 269 268 267 266 265 264 263 262 261 260 260 259 258 257 256 255 254 254 254 254 254 254 253 253 253 253 252 252 252 251 251 251 251 251 251 251 251 251 251 251 252 252 252 252 253 253 253 254
297 297 297 296 296 295 295 295 294 294 293 293 292 292 292 291 291 290 290 290 289 288 288 287 286 285 284 283 281 280 279 277 276 275 274 273 272 270 269 268 267 266 265 263 262 261 260 259 259 258 257 256 255 254 253 253 252 252 252 252 252 252 252 251 251 251 250 250 250 250 250 250 250 250 250 250 250 250 251 251 251 251 252 252 252 253
298 297 297 297 296 296 296 295 295 295 294 294 293 293 292 292 292 291 291 290 290 289 288 287 287 285 284 283 282 280 279 277 276 275 274 273 271 270 269 267 266 265 264 263 262 261 260 259 258 257 256 255 254 253 253 252 251 251 250 250 250 250 250 250 250 250 249 249 249 249 249 249 249 249 249 249 249 249 249 250 250 250 250 251 251 252
299 298 298 298 297 297 297 296 296 296 295 295 295 294 294 293 293 292 292 291 291 290 289 288 287 286 285 284 282 281 279 278 276 275 274 273 271 270 268 267 266 265 264 262 261 260 259 258 257 256 255 254 253 253 252 251 250 249 249 249 249 249 249 249 249 248 248 247 247 247 247 248 248 248 248 248 248 248 248 249 249 249 249 249 250 250
300 299 299 299 298 298 298 298 297 297 297 296 296 296 295 295 295 294 294 293 292 291 290 290 288 287 286 285 283 281 280 278 277 275 274 273 271 270 268 267 266 264 263 262 261 260 258 257 256 255 254 254 253 252 251 250 249 249 248 247 247 247 247 247 247 247 247 246 246 246 246 246 247 247 247 247 247 247 247 247 248 248 248 248 249 249
301 300 300 300 300 299 299 299 298 298 298 297 297 297 297 296 296 296 295 294 294 293 292 291 290 288 287 285 284 282 281 279 278 276 274 273 271 270 268 267 265 264 263 261 260 259 258 257 256 255 254 253 252 251 250 250 249 248 247 246 246 245 245 246 246 246 246 245 245 244 244 245 245 246 246 246 246 246 246 246 246 247 247 247 247 248
302 301 301 301 301 300 300 300 300 299 299 298 298 298 298 298 297 297 296 296 295 294 293 292 291 289 288 287 285 283 282 280 278 277 275 273 272 270 268 267 265 264 262 261 260 258 257 256 255 254 253 252 251 251 250 249 248 247 246 246 245 244 244 244 244 245 245 244 243 243 243 243 243 244 244 244 245 245 245 245 245 245 246 246 246 247
303 302 302 302 302 302 301 301 301 300 300 300 299 299 299 299 298 298 297 297 296 295 294 293 292 291 289 288 286 285 283 281 279 278 276 274 272 270 269 267 265 264 262 261 259 258 257 256 255 254 253 252 251 250 249 248 247 247 246 245 244 243 243 243 243 243 244 243 243 242 241 241 241 242 243 243 243 243 244 244 244 244 244 245 245 245
304 304 304 303 303 303 303 302 302 302 301 301 301 300 300 300 299 299 298 298 297 296 295 294 293 291 290 289 287 286 284 282 281 279 277 275 273 271 269 267 265 264 262 261 259 258 257 255 254 253 252 251 250 249 249 248 247 246 245 244 244 243 242 242 242 242 242 242 242 241 240 240 240 240 241 241 242 242 242 243 243 243 243 244 244 244
306 305 305 305 304 304 304 303 303 303 302 302 302 301 301 301 301 300 299 298 298 297 296 295 293 292 291 290 288 287 285 283 282 280 278 276 274 272 269 267 266 264 262 261 259 258 256 255 254 253 252 251 250 249 248 247 246 246 245 244 243 242 241 241 241 241 241 241 241 240 239 238 238 239 239 240 240 241 241 241 242 242 242 243 243 243
306 306 306 305 305 305 305 304 304 303 303 303 302 302 302 302 301 301 300 299 298 297 296 295 294 293 292 290 289 287 286 284 283 281 279 277 275 272 270 268 266 264 262 261 259 257 256 255 254 252 251 251 250 249 248 247 246 245 244 244 243 242 241 240 240 240 240 240 240 240 239 238 237 237 237 238 239 239 240 240 241 241 241 242 242 242
307 307 306 306 306 305 305 305 304 304 304 303 303 303 303 303 302 301 301 300 299 298 297 296 295 294 292 291 289 288 286 285 284 282 280 278 275 273 271 268 266 264 262 260 259 257 256 255 254 253 252 251 250 249 248 247 246 245 244 243 242 241 240 239 239 239 239 239 239 239 238 237 236 236 236 236 237 238 238 239 239 239 240 240 241 241
308 307 307 307 306 306 306 305 305 305 304 304 304 304 303 303 303 302 301 300 300 299 298 297 295 294 293 292 290 289 287 286 284 283 281 278 276 273 271 269 266 264 262 260 259 257 256 255 254 253 252 251 250 249 248 247 246 245 244 243 242 241 240 239 238 238 238 238 238 238 238 237 235 235 234 235 235 236 237 237 237 238 238 239 239 240
308 308 308 307 307 306 306 306 305 305 305 304 304 304 304 304 303 302 302 301 300 299 298 297 296 295 294 292 291 289 288 286 285 283 281 279 276 273 271 269 267 265 263 261 259 257 256 255 254 253 252 250 249 248 247 246 245 244 243 242 242 241 240 239 239 238 238 237 237 237 237 236 235 234 233 233 234 234 235 235 236 236 237 237 238 239
309 309 308 308 307 307 307 306 306 306 305 305 305 304 304 304 303 303 302 301 301 300 299 298 297 296 294 293 292 290 288 287 285 284 281 279 276 274 271 269 267 265 263 261 259 257 256 255 254 252 251 250 249 248 247 246 245 244 243 242 241 241 240 239 239 238 238 237 237 237 237 236 235 234 233 232 232 233 234 234 235 235 235 236 237 237
310 310 309 309 308 308 307 307 307 306 306 305 305 305 304 304 303 303 302 302 301 300 299 298 298 296 295 294 292 291 289 288 286 284 282 280 277 274 272 270 267 265 263 261 259 257 256 255 253 252 251 250 248 247 246 245 244 244 243 242 241 240 240 240 239 239 238 237 237 236 236 236 235 234 233 232 232 232 232 233 233 234 234 235 235 236
311 311 310 310 310 309 308 308 307 307 306 306 306 305 305 304 304 303 303 302 302 301 300 299 298 297 296 295 293 292 290 288 286 285 282 280 278 275 273 270 268 266 264 262 259 258 256 254 253 252 250 249 248 247 246 245 245 244 243 242 241 241 240 240 239 239 238 237 236 236 235 235 235 234 233 232 231 231 231 232 232 233 233 233 234 235
313 312 312 311 311 310 310 309 308 308 307 307 306 306 305 305 304 304 303 303 302 302 301 300 299 298 297 295 294 293 291 289 287 285 283 281 279 276 274 271 269 266 264 262 260 258 256 254 253 252 250 249 248 247 246 245 245 244 243 242 242 241 241 240 240 239 238 236 235 235 234 234 234 233 232 231 230 230 230 231 231 231 232 232 233 234
314 313 313 313 312 311 311 310 309 309 308 308 307 306 306 305 305 305 304 304 303 302 302 301 299 298 297 296 295 293 292 290 288 286 284 282 279 277 274 272 269 267 264 262 260 258 256 255 253 252 251 249 248 247 246 245 244 244 243 242 242 241 241 240 240 239 237 236 234 234 233 233 233 233 232 230 229 229 229 229 230 230 231 231 232 232
315 315 314 314 313 313 312 311 311 310 309 309 308 307 307 306 306 306 305 305 304 303 302 301 300 299 298 297 295 294 292 291 289 287 285 282 280 277 275 273 270 267 265 262 260 258 256 255 253 252 251 250 249 248 247 245 244 244 243 242 242 241 241 240 240 239 237 236 234 233 232 232 232 232 231 230 228 228 228 228 228 229 229 230 230 231
317 316 316 316 315 314 313 313 312 311 310 310 309 309 308 308 307 307 306 306 305 304 303 302 301 300 299 297 296 294 293 291 289 287 285 283 280 278 275 273 270 268 265 263 260 258 256 255 253 252 251 250 249 248 247 246 245 244 243 242 241 241 240 240 239 239 237 235 234 232 232 231 231 231 230 229 228 227 227 227 227 227 227 228 229 229
319 318 318 317 316 316 315 314 313 312 312 311 310 310 309 309 308 308 307 307 306 305 304 303 302 301 300 298 297 295 293 291 290 288 286 284 281 279 276 274 271 268 266 263 261 259 257 255 253 252 251 250 249 248 247 246 245 244 243 242 241 240 240 240 239 238 237 235 233 232 231 231 230 230 229 228 227 226 226 226 226 226 226 227 227 228
320 320 319 319 318 317 316 315 314 314 313 312 312 311 310 310 309 309 308 308 307 306 305 304 303 302 301 299 298 296 294 292 290 288 286 284 282 280 277 274 272 269 266 264 261 259 257 255 254 252 251 250 249 248 247 246 244 244 243 242 241 240 240 239 238 237 236 234 233 232 231 230 230 230 229 228 227 226 225 225 225 225 225 225 226 226
322 321 321 320 319 318 318 317 316 315 314 313 313 312 311 311 310 310 309 309 308 307 306 305 304 303 302 300 299 297 295 293 291 289 287 285 283 280 278 275 273 270 267 264 262 260 257 255 254 252 251 250 249 248 247 245 244 243 242 241 241 240 239 238 237 236 235 233 232 231 230 230 230 229 229 228 227 226 225 225 224 224 224 224 225 225
323 323 322 321 321 320 319 318 317 316 315 314 314 313 312 312 312 311 311 310 309 309 308 306 305 304 303 301 300 298 296 294 292 290 288 286 283 281 279 276 273 271 268 265 263 260 258 256 254 252 251 249 248 247 246 245 244 243 242 241 240 239 238 237 236 235 233 232 231 230 229 229 229 229 228 227 226 225 225 224 223 223 223 223 223 224
325 324 324 323 322 321 320 319 318 317 317 316 315 314 314 314 313 313 312 312 311 310 309 308 307 305 304 302 301 299 297 295 293 291 289 287 284 282 280 277 274 272 269 266 263 261 258 256 254 252 250 249 248 246 245 245 244 243 242 241 240 239 238 237 235 234 232 231 230 229 228 228 228 228 228 227 226 225 224 223 223 223 222 222 222 223
326 326 325 325 324 323 322 321 320 319 318 317 317 316 316 315 315 314 314 313 312 312 311 309 308 307 305 304 302 300 298 296 293 291 290 288 285 283 281 278 275 273 270 267 264 262 259 257 254 252 250 249 247 246 245 244 243 242 241 241 239 238 237 236 235 233 232 230 229 228 228 228 227 227 227 227 226 225 224 223 223 222 222 222 221 222
328 328 327 327 326 325 324 323 321 320 320 319 318 318 317 317 317 316 315 315 314 313 312 311 310 308 307 305 303 301 299 297 294 292 290 288 286 284 281 279 276 273 270 268 265 262 260 257 255 253 251 249 247 245 244 243 242 242 241 240 239 238 237 235 234 232 231 229 228 227 227 227 227 227 227 227 226 225 224 223 223 222 222 221 221 221
331 330 329 328 327 326 325 324 323 322 321 320 320 319 319 319 318 318 317 317 316 315 314 313 311 310 308 306 304 302 300 298 295 293 291 290 287 285 282 280 277 274 271 268 266 263 260 258 255 253 251 249 247 246 244 243 242 241 240 239 238 237 236 234 233 232 230 229 228 227 226 226 226 226 227 227 226 225 224 224 223 222 222 221 221 220
332 332 331 330 329 328 327 325 324 323 323 322 321 321 321 320 320 319 319 318 317 317 316 315 313 312 310 308 306 304 302 299 297 295 293 290 288 286 284 281 278 275 272 269 266 263 261 258 256 254 251 250 248 246 244 243 242 240 240 239 238 236 235 234 232 231 229 228 227 226 225 225 225 226 226 226 226 225 224 223 222 222 221 221 220 220
333 333 332 331 330 329 328 327 326 325 324 324 323 323 322 322 321 321 320 320 319 318 317 316 315 313 311 309 307 305 303 301 298 296 294 291 289 287 285 282 279 276 273 270 267 264 261 259 256 254 252 250 248 246 244 243 241 240 239 238 237 236 235 233 231 230 229 227 226 225 225 225 225 225 225 225 225 224 223 222 222 221 221 220 220 220
335 334 333 333 332 330 329 328 327 326 326 325 325 324 324 323 323 322 322 321 320 320 319 318 316 315 313 311 309 307 305 302 300 297 295 292 290 288 286 283 280 278 274 271 268 265 262 259 256 254 251 249 247 246 244 242 241 240 239 238 237 236 234 233 231 230 228 227 226 225 225 224 224 224 224 224 224 223 223 222 221 221 220 220 219 219
336 335 335 334 333 332 331 330 329 328 328 327 327 326 325 325 324 324 323 323 322 321 320 319 318 316 314 312 310 308 306 304 301 299 296 294 291 289 287 284 282 279 276 273 269 266 263 259 256 254 251 249 247 245 243 242 241 239 238 238 237 236 235 233 232 230 228 227 226 225 224 224 223 223 223 223 223 222 222 221 221 220 220 219 219 218
Height
10477 10474 10472 10470 10467 10464 10461 10458 10457 10456 10452 10449 10447 10446 10444 10441 10438 10436 10434 10433 10431 10430 10428 10427 10426 10426 10424 10424 10422 10422 10422 10422 10423 10424 10426 10427 10427 10429 10429 10430 10431 10431 10431 10432 10434 10435 10436 10437 10437 10437 10438 10438 10439 10440 10442 10443 10444 10446 10447 10448 10450 10451 10453 10454 10456 10457 10459 10461 10462 10464 10465 10467 10469 10471 10472 10474 10475 10476 10477 10478 10480 10482 10484 10484 10486 10487
10468 10466 10463 10461 10459 10457 10453 10450 10448 10447 10445 10441 10439 10437 10436 10433 10430 10427 10425 10423 10421 10419 10418 10417 10416 10415 10414 10413 10412 10411 10411 10410 10411 10412 10413 10414 10416 10417 10418 10419 10420 10421 10421 10422 10423 10424 10426 10427 10429 10430 10430 10431 10431 10431 10432 10434 10436 10437 10439 10440 10442 10444 10446 10447 10449 10451 10452 10454 10456 10457 10458 10460 10462 10464 10466 10467 10468 10469 10470 10472 10473 10475 10477 10479 10481 10481
10460 10457 10454 10452 10451 10449 10445 10441 10439 10438 10436 10434 10431 10429 10427 10425 10422 10419 10416 10415 10412 10410 10408 10407 10406 10405 10404 10402 10402 10401 10400 10399 10399 10400 10401 10402 10404 10406 10407 10409 10409 10411 10411 10412 10412 10413 10415 10417 10419 10420 10421 10422 10422 10424 10425 10426 10427 10429 10430 10431 10433 10435 10437 10439 10441 10443 10445 10447 10449 10450 10451 10452 10454 10456 10458 10460 10461 10462 10463 10464 10466 10468 10470 10471 10473 10474
10452 10449 10445 10442 10441 10439 10436 10432 10430 10428 10426 10424 10422 10419 10417 10416 10413 10411 10408 10407 10404 10402 10399 10397 10397 10396 10394 10392 10392 10391 10390 10389 10388 10389 10389 10391 10392 10394 10396 10397 10399 10400 10401 10402 10402 10403 10404 10406 10407 10409 10410 10411 10412 10414 10416 10418 10419 10420 10422 10423 10424 10426 10428 10430 10432 10434 10437 10439 10441 10442 10444 10446 10447 10449 10451 10452 10454 10456 10457 10457 10460 10462 10464 10465 10466 10467
10442 10440 10437 10434 10431 10429 10425 10422 10421 10418 10415 10413 10411 10409 10407 10405 10402 10401 10399 10397 10396 10393 10391 10389 10387 10386 10384 10383 10382 10381 10380 10379 10377 10377 10377 10378 10379 10381 10382 10384 10387 10389 10391 10392 10393 10394 10394 10395 10396 10397 10399 10400 10402 10404 10406 10409 10411 10412 10413 10414 10416 10417 10419 10421 10423 10426 10427 10430 10432 10434 10436 10438 10439 10441 10444 10445 10447 10449 10450 10451 10453 10455 10457 10459 10460 10462
10432 10431 10428 10425 10422 10419 10416 10413 10410 10407 10405 10402 10400 10397 10396 10394 10392 10390 10388 10387 10385 10383 10382 10380 10378 10376 10375 10373 10371 10371 10369 10368 10367 10366 10366 10366 10367 10368 10369 10371 10373 10376 10378 10381 10382 10384 10385 10386 10386 10387 10387 10388 10390 10392 10394 10398 10401 10402 10404 10405 10407 10408 10409 10412 10414 10416 10419 10421 10423 10425 10427 10429 10431 10433 10436 10437 10439 10442 10443 10445 10446 10448 10451 10452 10453 10455
10422 10420 10417 10416 10412 10409 10405 10403 10401 10398 10396 10392 10389 10387 10386 10384 10382 10379 10377 10376 10374 10373 10372 10370 10368 10366 10365 10363 10361 10360 10359 10357 10356 10356 10355 10355 10355 10356 10356 10357 10359 10362 10365 10367 10370 10372 10374 10376 10377 10377 10377 10377 10379 10381 10383 10386 10390 10392 10394 10395 10397 10399 10400 10402 10404 10407 10409 10412 10414 10416 10418 10421 10422 10424 10427 10429 10431 10434 10436 10437 10439 10441 10444 10445 10446 10448
10412 10409 10406 10405 10402 10399 10395 10391 10389 10388 10386 10383 10379 10376 10374 10374 10372 10369 10366 10365 10363 10362 10360 10359 10357 10356 10354 10352 10351 10349 10348 10346 10346 10344 10344 10343 10343 10344 10344 10345 10346 10349 10351 10353 10356 10359 10362 10364 10366 10366 10367 10367 10367 10369 10372 10376 10379 10382 10383 10385 10387 10389 10391 10392 10394 10397 10400 10402 10406 10408 10410 10412 10414 10416 10418 10420 10423 10426 10427 10430 10432 10434 10436 10438 10440 10442
10403 10400 10396 10392 10391 10389 10385 10380 10376 10374 10374 10372 10368 10363 10361 10361 10360 10357 10354 10353 10351 10349 10348 10347 10346 10343 10341 10340 10339 10339 10336 10334 10333 10332 10332 10331 10331 10331 10332 10333 10334 10336 10337 10339 10342 10344 10347 10351 10352 10354 10356 10356 10357 10358 10361 10364 10367 10371 10373 10375 10377 10379 10381 10383 10385 10387 10390 10393 10396 10399 10401 10404 10406 10407 10409 10412 10414 10417 10419 10422 10424 10427 10429 10431 10434 10436
10392 10389 10386 10381 10377 10375 10373 10369 10363 10359 10357 10357 10354 10350 10347 10346 10346 10344 10341 10339 10337 10336 10336 10335 10332 10329 10327 10327 10326 10326 10324 10322 10319 10319 10318 10318 10318 10317 10318 10320 10321 10323 10324 10326 10328 10331 10333 10336 10338 10341 10342 10344 10346 10347 10349 10351 10355 10359 10362 10364 10366 10369 10371 10374 10376 10378 10381 10384 10387 10390 10393 10396 10397 10399 10401 10404 10406 10408 10411 10414 10417 10419 10421 10424 10427 10429
10381 10377 10374 10369 10366 10362 10359 10355 10351 10346 10342 10341 10339 10334 10331 10330 10331 10331 10328 10324 10321 10321 10322 10321 10318 10315 10312 10312 10312 10311 10309 10308 10306 10304 10302 10303 10304 10304 10304 10306 10307 10310 10312 10314 10316 10317 10319 10321 10323 10326 10328 10331 10332 10334 10336 10339 10342 10346 10349 10352 10355 10358 10361 10364 10366 10369 10371 10374 10377 10381 10384 10387 10389 10391 10394 10396 10398 10401 10403 10406 10409 10412 10414 10417 10419 10422
10369 10365 10361 10357 10353 10349 10345 10341 10337 10332 10329 10326 10323 10319 10315 10312 10312 10314 10314 10309 10305 10303 10304 10305 10303 10299 10297 10296 10296 10295 10293 10292 10291 10289 10287 10287 10289 10289 10289 10290 10292 10294 10297 10299 10302 10304 10306 10307 10309 10311 10313 10316 10318 10321 10323 10326 10329 10332 10336 10339 10342 10346 10350 10354 10356 10359 10362 10364 10367 10371 10374 10377 10381 10383 10386 10387 10390 10392 10396 10399 10402 10405 10407 10409 10412 10414
10357 10354 10350 10346 10341 10336 10332 10327 10323 10319 10314 10312 10309 10306 10301 10297 10296 10296 10297 10294 10290 10287 10287 10289 10287 10284 10281 10280 10280 10279 10277 10275 10274 10273 10272 10272 10272 10273 10273 10274 10276 10278 10281 10283 10286 10289 10291 10293 10295 10297 10299 10301 10303 10306 10308 10312 10315 10319 10322 10326 10329 10333 10338 10342 10346 10349 10352 10354 10357 10361 10364 10367 10371 10374 10377 10379 10382 10385 10388 10391 10394 10397 10400 10402 10405 10407
10346 10342 10338 10333 10328 10324 10319 10316 10311 10306 10301 10297 10294 10292 10288 10284 10281 10280 10279 10277 10274 10272 10271 10272 10271 10268 10265 10264 10264 10263 10261 10259 10257 10257 10257 10257 10257 10257 10257 10259 10260 10261 10263 10266 10270 10273 10275 10277 10280 10282 10284 10286 10288 10291 10293 10296 10300 10304 10308 10312 10315 10319 10324 10331 10336 10339 10342 10344 10347 10350 10353 10357 10361 10364 10367 10370 10373 10376 10379 10383 10386 10389 10392 10395 10397 10400
10336 10331 10327 10321 10316 10311 10307 10303 10298 10293 10287 10283 10280 10277 10275 10271 10267 10265 10264 10262 10259 10256 10256 10256 10255 10253 10251 10249 10249 10247 10245 10242 10241 10241 10241 10242 10242 10242 10243 10244 10245 10245 10246 10249 10252 10256 10258 10261 10264 10267 10269 10271 10273 10276 10278 10281 10284 10289 10293 10297 10301 10305 10310 10316 10322 10327 10331 10334 10336 10339 10342 10346 10349 10353 10357 10361 10364 10367 10371 10374 10377 10381 10384 10387 10390 10392
10325 10321 10316 10309 10304 10299 10294 10290 10286 10281 10275 10270 10266 10264 10261 10257 10253 10251 10248 10246 10244 10242 10241 10240 10239 10237 10236 10234 10234 10232 10229 10227 10224 10224 10226 10227 10228 10228 10228 10229 10229 10229 10230 10233 10236 10239 10241 10244 10247 10251 10254 10256 10258 10261 10262 10265 10269 10273 10277 10282 10287 10291 10296 10302 10308 10314 10319 10322 10326 10328 10331 10335 10339 10342 10346 10350 10354 10357 10361 10365 10369 10372 10376 10379 10382 10385
10313 10309 10304 10298 10292 10287 10282 10277 10273 10267 10262 10257 10254 10250 10247 10243 10240 10237 10234 10231 10229 10228 10227 10226 10224 10223 10221 10219 10218 10217 10214 10211 10209 10209 10211 10213 10214 10214 10214 10214 10214 10214 10214 10217 10221 10224 10225 10227 10229 10233 10236 10239 10242 10246 10247 10250 10254 10257 10262 10267 10272 10277 10282 10287 10293 10299 10306 10311 10314 10317 10319 10324 10327 10332 10336 10340 10344 10348 10352 10356 10360 10364 10367 10371 10374 10377
10302 10297 10292 10287 10281 10275 10270 10266 10261 10255 10249 10245 10241 10237 10234 10230 10227 10224 10221 10218 10216 10214 10212 10211 10210 10209 10207 10206 10204 10202 10200 10197 10194 10194 10195 10198 10200 10201 10200 10199 10199 10199 10199 10202 10206 10208 10209 10211 10213 10216 10219 10222 10226 10230 10233 10236 10239 10242 10247 10252 10257 10262 10267 10272 10279 10285 10292 10297 10302 10306 10309 10312 10316 10321 10326 10330 10334 10339 10344 10347 10351 10355 10359 10362 10366 10370
10291 10284 10279 10274 10269 10264 10258 10254 10249 10244 10238 10232 10229 10226 10222 10219 10215 10211 10209 10206 10203 10201 10199 10197 10196 10195 10194 10192 10190 10188 10186 10183 10181 10179 10180 10182 10185 10186 10186 10186 10184 10184 10184 10187 10191 10193 10194 10196 10197 10200 10203 10206 10210 10214 10217 10221 10224 10227 10232 10237 10242 10247 10252 10258 10264 10271 10277 10284 10289 10292 10297 10301 10305 10309 10315 10320 10325 10330 10334 10339 10342 10346 10350 10354 10357 10361
10278 10272 10267 10262 10257 10252 10246 10241 10237 10232 10227 10222 10217 10214 10211 10207 10204 10201 10197 10194 10191 10189 10187 10185 10182 10181 10180 10178 10176 10174 10172 10169 10167 10166 10166 10169 10171 10172 10172 10171 10170 10169 10171 10173 10176 10178 10179 10181 10183 10185 10188 10191 10194 10198 10202 10206 10210 10214 10217 10222 10227 10232 10237 10242 10249 10256 10263 10269 10275 10279 10284 10289 10294 10299 10304 10310 10316 10321 10325 10329 10333 10337 10341 10345 10349 10352
10266 10259 10254 10249 10245 10240 10234 10229 10224 10219 10214 10210 10206 10202 10199 10196 10192 10189 10186 10182 10179 10177 10174 10172 10170 10168 10166 10164 10162 10160 10158 10156 10154 10154 10154 10157 10158 10159 10158 10157 10156 10156 10157 10160 10162 10164 10166 10167 10169 10171 10173 10176 10179 10182 10186 10191 10195 10199 10204 10209 10213 10217 10222 10227 10233 10241 10248 10255 10261 10267 10271 10276 10282 10288 10294 10299 10305 10311 10315 10319 10323 10327 10332 10336 10340 10344
10253 10247 10241 10236 10232 10227 10222 10217 10212 10207 10202 10197 10192 10189 10186 10183 10180 10177 10174 10171 10168 10165 10162 10159 10157 10155 10153 10151 10149 10146 10144 10143 10142 10142 10143 10145 10146 10146 10145 10144 10143 10144 10145 10147 10149 10151 10152 10154 10155 10157 10160 10162 10166 10169 10172 10176 10181 10185 10190 10195 10199 10204 10208 10212 10217 10224 10232 10241 10247 10254 10259 10264 10271 10277 10283 10289 10294 10300 10305 10309 10314 10317 10322 10327 10331 10335
10241 10234 10229 10224 10219 10215 10210 10205 10200 10195 10190 10185 10181 10176 10173 10170 10167 10164 10161 10159 10156 10152 10150 10147 10145 10143 10141 10138 10136 10133 10132 10130 10129 10130 10132 10134 10134 10133 10133 10132 10131 10131 10132 10134 10136 10137 10139 10141 10142 10144 10147 10150 10152 10155 10159 10162 10167 10172 10176 10182 10186 10191 10194 10198 10203 10209 10217 10226 10234 10241 10247 10253 10259 10266 10272 10278 10283 10289 10294 10299 10303 10307 10312 10317 10322 10326
10228 10222 10217 10212 10207 10202 10198 10194 10189 10184 10179 10174 10169 10165 10162 10159 10156 10152 10149 10146 10143 10141 10138 10136 10134 10131 10128 10126 10123 10121 10119 10118 10118 10119 10121 10122 10122 10122 10122 10121 10119 10119 10121 10122 10124 10125 10126 10127 10129 10132 10135 10137 10140 10142 10146 10150 10154 10159 10164 10169 10174 10178 10182 10185 10189 10194 10201 10210 10219 10227 10235 10242 10247 10254 10260 10266 10271 10277 10282 10287 10292 10297 10302 10307 10312 10317
10216 10211 10206 10201 10196 10191 10186 10182 10177 10172 10167 10162 10159 10154 10151 10147 10144 10142 10139 10135 10132 10129 10126 10124 10122 10119 10117 10114 10112 10109 10107 10107 10107 10108 10110 10111 10112 10112 10111 10109 10108 10108 10109 10111 10112 10113 10114 10116 10117 10120 10122 10125 10127 10131 10134 10138 10142 10147 10151 10156 10161 10166 10170 10173 10176 10181 10186 10194 10204 10214 10222 10230 10236 10242 10248 10254 10259 10264 10270 10276 10281 10287 10292 10298 10303 10308
10206 10200 10194 10189 10184 10180 10175 10170 10165 10161 10156 10151 10147 10144 10141 10137 10134 10131 10127 10124 10121 10118 10116 10114 10111 10109 10106 10103 10101 10099 10097 10096 10097 10098 10100 10102 10102 10102 10101 10099 10098 10098 10099 10100 10101 10102 10103 10104 10106 10109 10111 10113 10116 10119 10122 10127 10131 10134 10139 10143 10148 10153 10158 10162 10165 10168 10173 10180 10189 10199 10209 10217 10224 10230 10236 10241 10246 10252 10258 10264 10271 10277 10282 10288 10294 10299
10194 10189 10183 10178 10173 10168 10164 10159 10154 10149 10144 10140 10136 10133 10130 10127 10124 10121 10117 10114 10111 10108 10106 10104 10101 10098 10096 10094 10091 10088 10087 10086 10087 10088 10091 10092 10092 10092 10090 10089 10088 10088 10089 10089 10091 10092 10092 10094 10096 10097 10099 10101 10104 10108 10112 10115 10119 10122 10127 10131 10136 10141 10147 10151 10154 10157 10161 10167 10175 10186 10196 10205 10212 10217 10224 10229 10234 10241 10247 10254 10260 10266 10272 10279 10284 10290
10184 10179 10173 10167 10162 10157 10152 10148 10143 10138 10134 10129 10126 10122 10120 10117 10114 10111 10107 10105 10102 10099 10097 10094 10091 10089 10087 10084 10082 10079 10077 10077 10077 10079 10082 10083 10082 10081 10080 10079 10079 10079 10080 10080 10081 10082 10083 10084 10084 10086 10089 10091 10094 10098 10101 10104 10107 10111 10116 10120 10125 10130 10136 10140 10144 10147 10150 10154 10162 10172 10182 10192 10199 10206 10212 10217 10223 10230 10237 10243 10250 10256 10263 10269 10274 10280
10177 10171 10164 10159 10154 10148 10143 10138 10134 10129 10124 10119 10116 10112 10109 10107 10104 10101 10098 10096 10093 10091 10087 10086 10083 10081 10078 10076 10074 10071 10069 10069 10069 10071 10073 10073 10072 10071 10071 10071 10070 10070 10071 10071 10071 10072 10073 10073 10074 10076 10079 10081 10085 10088 10091 10094 10098 10101 10106 10109 10114 10119 10124 10128 10132 10136 10139 10143 10149 10158 10169 10179 10187 10194 10199 10206 10212 10219 10226 10233 10239 10246 10253 10259 10265 10271
10169 10164 10157 10151 10146 10140 10135 10130 10125 10120 10116 10111 10107 10103 10101 10098 10095 10092 10089 10087 10085 10082 10079 10077 10074 10072 10070 10068 10066 10063 10061 10061 10062 10064 10065 10064 10064 10062 10062 10062 10061 10061 10062 10063 10063 10063 10064 10064 10066 10068 10071 10073 10076 10079 10082 10085 10089 10092 10096 10099 10104 10108 10112 10116 10121 10125 10129 10132 10138 10146 10156 10166 10174 10181 10188 10195 10202 10208 10215 10221 10228 10236 10243 10250 10256 10261
10163 10157 10151 10145 10139 10133 10127 10122 10117 10112 10107 10103 10099 10095 10092 10089 10087 10084 10081 10079 10077 10074 10072 10069 10067 10064 10062 10061 10059 10056 10054 10054 10054 10056 10057 10056 10055 10054 10054 10053 10052 10053 10054 10056 10056 10056 10056 10056 10057 10060 10062 10066 10068 10071 10073 10076 10079 10082 10086 10089 10093 10097 10101 10105 10109 10114 10118 10122 10128 10136 10144 10153 10161 10169 10176 10183 10190 10197 10203 10210 10217 10225 10232 10240 10246 10251
10157 10151 10146 10139 10133 10127 10121 10116 10111 10106 10101 10096 10092 10088 10084 10082 10079 10076 10074 10072 10069 10067 10065 10062 10060 10057 10055 10054 10052 10049 10047 10047 10047 10048 10049 10049 10047 10046 10046 10045 10044 10045 10047 10048 10049 10049 10049 10049 10050 10052 10055 10057 10059 10062 10064 10067 10069 10072 10076 10079 10083 10086 10090 10094 10098 10102 10108 10114 10119 10126 10134 10142 10149 10157 10165 10172 10179 10185 10191 10199 10206 10214 10222 10229 10236 10242
10152 10146 10139 10133 10127 10121 10115 10109 10104 10099 10094 10090 10086 10082 10078 10075 10072 10069 10067 10064 10062 10060 10058 10056 10053 10051 10048 10046 10044 10042 10041 10041 10041 10041 10041 10041 10039 10039 10038 10038 10037 10038 10039 10040 10041 10042 10042 10042 10042 10044 10046 10049 10051 10052 10055 10057 10060 10063 10066 10070 10073 10076 10080 10084 10088 10093 10099 10105 10111 10117 10124 10132 10139 10147 10154 10162 10169 10175 10181 10188 10196 10204 10212 10219 10226 10232
10146 10140 10134 10127 10121 10115 10109 10104 10098 10093 10089 10084 10080 10076 10072 10069 10066 10062 10060 10058 10056 10053 10051 10049 10046 10044 10042 10040 10037 10036 10035 10034 10034 10034 10034 10033 10032 10031 10031 10031 10031 10031 10032 10033 10034 10034 10035 10035 10035 10036 10038 10040 10042 10044 10046 10049 10051 10054 10057 10061 10064 10067 10071 10074 10079 10084 10091 10097 10104 10109 10114 10121 10129 10136 10145 10152 10159 10165 10171 10179 10186 10194 10202 10209 10216 10223
10139 10134 10127 10121 10115 10109 10103 10097 10092 10087 10083 10079 10074 10071 10067 10063 10060 10057 10054 10052 10049 10047 10045 10042 10041 10038 10036 10034 10032 10030 10028 10027 10027 10027 10027 10026 10026 10025 10024 10024 10025 10026 10026 10026 10027 10027 10027 10027 10028 10029 10031 10032 10034 10036 10038 10041 10044 10047 10050 10052 10056 10058 10062 10066 10071 10076 10083 10091 10096 10101 10106 10112 10119 10126 10134 10142 10149 10156 10162 10169 10177 10185 10192 10201 10207 10214
10133 10127 10121 10115 10109 10103 10097 10092 10087 10082 10077 10073 10069 10066 10062 10058 10055 10052 10049 10046 10044 10041 10039 10037 10035 10033 10031 10029 10026 10024 10022 10021 10021 10021 10021 10020 10019 10019 10018 10018 10019 10019 10020 10020 10021 10021 10021 10021 10021 10022 10023 10025 10027 10029 10031 10034 10037 10040 10042 10045 10048 10051 10054 10059 10063 10069 10076 10082 10088 10093 10098 10103 10109 10116 10124 10132 10140 10147 10153 10160 10167 10175 10183 10191 10198 10205
10127 10121 10115 10109 10104 10098 10092 10087 10081 10077 10072 10067 10064 10060 10056 10053 10050 10047 10044 10041 10039 10036 10033 10031 10029 10027 10026 10024 10021 10019 10017 10016 10015 10015 10014 10014 10014 10013 10012 10012 10012 10013 10014 10014 10014 10015 10015 10015 10015 10016 10017 10018 10020 10022 10024 10027 10030 10032 10035 10038 10041 10044 10047 10052 10056 10062 10067 10074 10080 10085 10090 10094 10100 10106 10114 10122 10130 10137 10144 10151 10157 10166 10173 10181 10189 10196
10121 10115 10109 10104 10098 10092 10087 10081 10076 10072 10067 10062 10059 10055 10051 10047 10045 10042 10039 10036 10034 10031 10028 10026 10024 10022 10020 10018 10016 10014 10012 10011 10009 10009 10009 10008 10008 10007 10007 10007 10007 10007 10008 10008 10009 10009 10009 10009 10009 10010 10011 10012 10014 10016 10019 10021 10024 10026 10029 10032 10035 10038 10041 10045 10049 10055 10061 10067 10072 10077 10082 10086 10091 10097 10104 10112 10120 10127 10133 10140 10147 10154 10162 10171 10179 10186
10114 10109 10103 10097 10092 10086 10081 10076 10071 10067 10062 10058 10054 10050 10046 10042 10039 10037 10034 10031 10029 10026 10023 10021 10019 10017 10015 10013 10011 10009 10007 10006 10004 10004 10003 10002 10002 10002 10001 10001 10001 10002 10002 10002 10003 10003 10004 10004 10004 10005 10006 10007 10009 10011 10013 10016 10017 10020 10022 10026 10028 10031 10034 10038 10043 10048 10054 10060 10066 10070 10074 10077 10082 10088 10095 10102 10109 10116 10122 10129 10136 10144 10152 10161 10169 10177
10109 10103 10097 10092 10086 10081 10076 10071 10066 10062 10057 10053 10049 10046 10042 10038 10035 10032 10029 10027 10024 10021 10019 10016 10014 10012 10010 10008 10007 10004 10002 10001 9999 9999 9997 9997 9997 9997 9996 9996 9996 9996 9997 9997 9997 9997 9998 9999 9999 10000 10001 10002 10004 10006 10007 10009 10012 10014 10017 10019 10022 10024 10028 10032 10037 10042 10047 10053 10058 10062 10066 10069 10074 10079 10086 10093 10100 10106 10112 10119 10126 10134 10142 10151 10159 10167
10103 10097 10092 10086 10081 10076 10071 10066 10061 10057 10053 10049 10045 10041 10037 10034 10031 10027 10025 10022 10020 10017 10014 10012 10009 10007 10005 10004 10002 10000 9998 9996 9995 9994 9993 9992 9992 9992 9991 9991 9991 9991 9992 9992 9992 9992 9993 9994 9994 9995 9996 9997 9999 10001 10002 10004 10006 10008 10011 10013 10016 10019 10023 10027 10031 10036 10041 10047 10051 10055 10058 10062 10066 10072 10078 10085 10092 10098 10104 10111 10117 10125 10134 10142 10151 10157
10099 10093 10087 10082 10076 10071 10066 10061 10057 10052 10049 10044 10041 10037 10033 10030 10027 10024 10021 10018 10016 10013 10010 10007 10005 10002 10001 9999 9997 9996 9994 9992 9991 9989 9988 9987 9987 9987 9987 9987 9987 9987 9987 9987 9987 9987 9988 9989 9989 9991 9991 9992 9994 9995 9997 9999 10001 10002 10005 10007 10011 10014 10017 10021 10025 10029 10034 10039 10044 10048 10051 10055 10059 10065 10071 10077 10084 10090 10096 10103 10110 10117 10125 10133 10142 10149
10095 10089 10083 10077 10072 10067 10062 10057 10052 10049 10044 10041 10037 10033 10029 10026 10023 10020 10017 10014 10011 10009 10006 10004 10001 9999 9997 9995 9993 9991 9989 9987 9986 9985 9984 9984 9983 9983 9982 9982 9982 9982 9982 9982 9983 9983 9984 9984 9985 9986 9987 9988 9989 9991 9992 9993 9995 9997 9999 10002 10006 10008 10011 10014 10019 10023 10027 10032 10036 10041 10044 10048 10052 10058 10064 10070 10076 10082 10089 10095 10102 10109 10116 10124 10132 10141
10091 10085 10079 10074 10069 10063 10059 10054 10049 10045 10041 10037 10033 10029 10026 10022 10019 10016 10013 10010 10007 10005 10002 9999 9997 9995 9992 9991 9989 9987 9986 9984 9982 9981 9980 9979 9979 9979 9979 9978 9978 9978 9978 9979 9979 9979 9979 9980 9981 9981 9982 9984 9984 9986 9987 9989 9990 9992 9994 9997 10000 10003 10006 10010 10014 10018 10022 10026 10030 10034 10038 10042 10046 10052 10057 10063 10069 10075 10081 10087 10094 10100 10107 10115 10123 10132
10086 10081 10075 10069 10064 10059 10054 10049 10045 10041 10037 10033 10029 10026 10022 10019 10016 10012 10009 10007 10004 10001 9999 9996 9994 9991 9989 9987 9986 9984 9982 9980 9979 9977 9976 9976 9975 9975 9974 9974 9974 9974 9974 9975 9975 9975 9976 9976 9976 9977 9978 9979 9981 9981 9982 9984 9986 9988 9990 9992 9995 9998 10002 10006 10009 10012 10016 10020 10024 10027 10031 10036 10041 10046 10051 10056 10062 10068 10074 10080 10086 10093 10100 10107 10115 10123
10082 10076 10071 10065 10060 10055 10050 10046 10041 10037 10034 10030 10026 10022 10019 10015 10012 10009 10006 10003 10001 9997 9995 9992 9991 9988 9986 9984 9982 9980 9979 9977 9975 9974 9972 9971 9971 9971 9971 9971 9971 9971 9971 9971 9971 9971 9972 9972 9972 9974 9974 9976 9976 9977 9979 9980 9982 9984 9986 9988 9991 9994 9997 10000 10003 10007 10011 10015 10019 10022 10027 10031 10036 10040 10044 10049 10055 10061 10068 10074 10081 10086 10092 10099 10107 10114
10077 10072 10066 10061 10056 10051 10047 10042 10038 10034 10030 10026 10022 10019 10016 10012 10009 10006 10003 10000 9997 9994 9992 9989 9987 9985 9982 9981 9979 9977 9975 9974 9972 9971 9969 9968 9967 9967 9967 9967 9967 9967 9967 9967 9967 9967 9967 9968 9969 9970 9971 9972 9972 9974 9975 9977 9978 9980 9981 9984 9986 9989 9992 9995 9999 10002 10006 10010 10013 10017 10022 10026 10030 10034 10039 10044 10050 10056 10063 10069 10075 10081 10086 10092 10099 10107
10074 10068 10063 10058 10053 10048 10044 10039 10035 10031 10027 10023 10020 10016 10012 10009 10006 10002 10000 9997 9994 9992 9989 9986 9984 9982 9979 9977 9976 9974 9972 9971 9969 9967 9966 9965 9964 9964 9964 9963 9963 9963 9963 9963 9964 9964 9964 9965 9966 9966 9967 9968 9969 9971 9972 9973 9974 9976 9977 9979 9982 9984 9987 9991 9994 9997 10001 10004 10008 10012 10016 10021 10024 10029 10034 10039 10045 10051 10057 10063 10069 10074 10080 10086 10093 10100
10071 10066 10060 10055 10050 10046 10041 10036 10032 10028 10024 10021 10017 10013 10010 10006 10003 10000 9997 9994 9991 9989 9986 9984 9981 9979 9977 9974 9972 9971 9969 9967 9966 9964 9963 9962 9961 9961 9960 9960 9960 9960 9960 9960 9960 9961 9961 9961 9962 9962 9964 9964 9966 9967 9968 9970 9971 9972 9974 9976 9977 9980 9982 9986 9989 9992 9995 9999 10003 10007 10011 10015 10019 10024 10029 10034 10039 10044 10050 10056 10062 10067 10074 10080 10087 10094
10068 10063 10058 10052 10047 10042 10038 10034 10029 10026 10021 10017 10014 10011 10007 10004 10001 9997 9994 9992 9989 9986 9984 9981 9979 9976 9974 9972 9970 9968 9966 9964 9963 9962 9961 9959 9959 9957 9957 9957 9957 9957 9957 9957 9957 9957 9957 9958 9959 9959 9961 9961 9962 9964 9965 9966 9967 9969 9971 9972 9974 9976 9979 9981 9984 9987 9991 9995 9999 10002 10006 10011 10014 10019 10023 10027 10032 10037 10044 10050 10056 10061 10067 10074 10080 10087
10066 10061 10056 10050 10045 10041 10036 10031 10027 10023 10019 10016 10012 10008 10005 10002 9998 9996 9992 9989 9987 9984 9981 9979 9976 9974 9971 9969 9967 9966 9964 9962 9961 9959 9958 9957 9956 9955 9954 9954 9954 9954 9954 9954 9954 9954 9954 9955 9956 9956 9957 9958 9959 9961 9962 9962 9964 9966 9967 9969 9971 9972 9975 9978 9981 9984 9988 9991 9995 9999 10002 10006 10009 10012 10016 10021 10026 10032 10038 10044 10049 10055 10061 10067 10074 10081